GW6392 Weather Reports


time (UTC)temp
C
wind
direction
speed
KPH
gust
KPH
rain 1hr
cm
rain 24hr
cm
rain mn
cm
humidity
%
barometer
mb
20260906224024 18 319 16.1 24.1 0.00 0.00 0.00 74 1016.1
20260906223520 18 312 16.1 24.1 0.00 0.00 0.00 73 1016.1
20260906223053 18 339 17.7 25.7 0.00 0.00 0.00 73 1016.2
20260906222519 19 310 16.1 25.7 0.00 0.00 0.00 72 1016.1
20260906222025 19 344 17.7 24.1 0.00 0.00 0.00 73 1016.0
20260906221550 19 352 12.9 22.5 0.00 0.00 0.00 73 1016.1
20260906221025 19 343 16.1 24.1 0.00 0.00 0.00 72 1016.1
20260906220519 19 318 16.1 24.1 0.00 0.00 0.00 72 1016.1
20260906220059 19 342 14.5 20.9 0.00 0.00 0.00 72 1016.0
20260906215520 20 328 9.7 16.1 0.00 0.00 0.00 71 1016.0
20260906215016 20 5 11.3 16.1 0.00 0.00 0.00 71 1016.0
20260906214538 20 360 9.7 14.5 0.00 0.00 0.00 71 1016.2
20260906214019 20 352 4.8 8.0 0.00 0.00 0.00 71 1016.2
20260906213520 20 42 1.6 8.0 0.00 0.00 0.00 70 1016.1
20260906213037 20 350 1.6 6.4 0.00 0.00 0.00 70 1016.2
20260906212518 20 67 4.8 6.4 0.00 0.00 0.00 70 1016.2
20260906212018 20 71 3.2 8.0 0.00 0.00 0.00 70 1016.2
20260906211535 20 27 1.6 8.0 0.00 0.00 0.00 70 1016.3
20260906211022 20 81 1.6 9.7 0.00 0.00 0.00 71 1016.4
20260906210518 20 57 3.2 9.7 0.00 0.00 0.00 71 1016.5
20260906210039 20 43 4.8 14.5 0.00 0.00 0.00 70 1016.5
20260906205520 20 59 6.4 14.5 0.00 0.00 0.00 71 1016.5
20260906205019 20 53 3.2 9.7 0.00 0.00 0.00 71 1016.5
20260906204538 20 29 4.8 14.5 0.00 0.00 0.00 71 1016.5
20260906204017 19 62 3.2 14.5 0.00 0.00 0.00 71 1016.5
20260906203519 20 78 6.4 11.3 0.00 0.00 0.00 71 1016.4
20260906203036 20 65 6.4 14.5 0.00 0.00 0.00 71 1016.5
20260906202518 20 90 8.0 14.5 0.00 0.00 0.00 70 1016.5
20260906202003 20 111 8.0 17.7 0.00 0.00 0.00 69 1016.4
20260906201536 20 82 8.0 24.1 0.00 0.00 0.00 69 1016.3
20260906201020 20 56 9.7 20.9 0.00 0.00 0.00 69 1016.2
20260906200519 20 51 11.3 24.1 0.00 0.00 0.00 69 1016.3
20260906200034 20 81 9.7 24.1 0.00 0.00 0.00 69 1016.3
20260906195519 20 61 9.7 22.5 0.00 0.00 0.00 71 1016.3
20260906195019 19 48 16.1 22.5 0.00 0.00 0.00 71 1016.4
20260906194536 19 42 17.7 25.7 0.00 0.00 0.00 71 1016.5
20260906194016 18 35 12.9 24.1 0.00 0.00 0.00 72 1016.5
20260906193521 18 35 16.1 24.1 0.00 0.00 0.00 72 1016.6
20260906193039 18 20 16.1 25.7 0.00 0.00 0.00 73 1016.8
20260906192505 18 48 17.7 27.4 0.00 0.00 0.00 73 1016.7
20260906192020 18 30 16.1 27.4 0.00 0.00 0.00 74 1016.5
20260906191535 18 45 19.3 27.4 0.00 0.00 0.00 75 1016.6
20260906191020 17 17 17.7 27.4 0.00 0.00 0.00 75 1017.1
20260906190519 18 16 20.9 29.0 0.00 0.00 0.00 75 1017.1
20260906190040 17 327 20.9 30.6 0.00 0.00 0.00 76 1017.1
20260906185519 17 5 20.9 30.6 0.00 0.00 0.00 77 1016.9
20260906185018 16 336 22.5 30.6 0.00 0.00 0.00 79 1016.8
20260906184539 16 18 22.5 30.6 0.00 0.00 0.00 80 1017.2
20260906184017 16 348 20.9 30.6 0.00 0.00 0.00 80 1017.3
20260906183520 16 350 22.5 30.6 0.00 0.00 0.00 80 1017.5
20260906183044 16 360 20.9 33.8 0.00 0.00 0.00 80 1017.9
20260906182519 15 340 24.1 32.2 0.00 0.00 0.00 81 1017.8
20260906182019 15 335 20.9 33.8 0.00 0.00 0.00 81 1018.0
20260906181543 15 350 24.1 35.4 0.00 0.00 0.00 81 1017.9
20260906181018 15 360 24.1 35.4 0.00 0.00 0.00 81 1018.2
20260906180519 15 32 20.9 29.0 0.00 0.00 0.00 83 1018.2
20260906180039 15 350 22.5 30.6 0.00 0.00 0.00 82 1018.2
20260906175518 15 360 24.1 32.2 0.00 0.00 0.00 82 1018.0
20260906175015 15 352 24.1 33.8 0.00 0.00 0.00 84 1018.2
20260906174542 15 340 22.5 33.8 0.00 0.00 0.00 84 1018.3
20260906174020 14 329 24.1 32.2 0.00 0.00 0.00 85 1018.4
20260906173519 14 5 25.7 32.2 0.00 0.00 0.00 87 1018.3
20260906173038 13 352 19.3 30.6 0.00 0.00 0.00 89 1018.1
20260906172519 13 342 19.3 32.2 0.00 0.00 0.00 90 1018.6
20260906172019 13 330 22.5 32.2 0.00 0.00 0.00 90 1018.8
20260906171541 13 360 20.9 29.0 0.00 0.00 0.00 89 1018.9
20260906171017 13 336 19.3 25.7 0.00 0.00 0.00 88 1018.9
20260906170517 13 344 19.3 29.0 0.00 0.00 0.00 87 1018.8
20260906170036 13 351 16.1 29.0 0.00 0.00 0.00 87 1019.0
20260906165521 14 5 17.7 27.4 0.00 0.00 0.00 85 1018.8
20260906165021 14 352 17.7 27.4 0.00 0.00 0.00 84 1019.1
20260906164538 14 331 17.7 27.4 0.00 0.00 0.00 85 1019.0
20260906164018 14 338 16.1 25.7 0.00 0.00 0.00 85 1019.0
20260906163519 15 316 19.3 27.4 0.00 0.00 0.00 84 1018.9
20260906163006 15 338 19.3 27.4 0.00 0.00 0.00 84 1018.9
20260906162518 15 352 16.1 22.5 0.00 0.00 0.00 84 1019.0
20260906162017 15 352 14.5 24.1 0.00 0.00 0.00 83 1019.1
20260906161537 15 346 16.1 24.1 0.00 0.00 0.00 83 1019.1
20260906161018 16 360 14.5 19.3 0.00 0.00 0.00 82 1019.1
20260906160518 16 342 9.7 14.5 0.00 0.00 0.00 82 1019.1
20260906160037 16 5 9.7 14.5 0.00 0.00 0.00 82 1019.2
20260906155521 16 19 6.4 12.9 0.00 0.00 0.00 82 1019.2
20260906155019 16 57 3.2 8.0 0.00 0.00 0.00 83 1019.1
20260906154541 16 55 4.8 9.7 0.00 0.00 0.00 83 1019.0
20260906154020 16 86 4.8 9.7 0.00 0.00 0.00 83 1019.0
20260906153519 16 71 1.6 8.0 0.00 0.00 0.00 82 1019.1
20260906153038 16 71 3.2 8.0 0.00 0.00 0.00 83 1019.0
20260906152520 16 63 4.8 9.7 0.00 0.00 0.00 82 1019.1
20260906152015 16 54 6.4 9.7 0.00 0.00 0.00 82 1018.9
20260906151548 16 57 3.2 14.5 0.00 0.00 0.00 82 1018.9
20260906151019 16 40 4.8 14.5 0.00 0.00 0.00 82 1018.8
20260906150518 16 71 8.0 14.5 0.00 0.00 0.00 82 1018.9
20260906150045 16 53 8.0 14.5 0.00 0.00 0.00 82 1019.0
20260906145518 16 78 8.0 16.1 0.00 0.00 0.00 82 1018.9
20260906145018 16 83 9.7 16.1 0.00 0.00 0.00 83 1019.0
20260906144540 16 50 9.7 14.5 0.00 0.00 0.00 84 1019.2
20260906144023 15 65 6.4 9.7 0.00 0.00 0.00 85 1019.3
20260906143508 15 89 4.8 12.9 0.00 0.00 0.00 85 1019.5
20260906143035 15 114 4.8 11.3 0.00 0.00 0.00 86 1019.6
20260906142517 15 157 1.6 6.4 0.00 0.00 0.00 86 1019.7
20260906142013 15 133 1.6 6.4 0.00 0.00 0.00 86 1019.6
20260906141542 15 171 0.0 4.8 0.00 0.00 0.00 86 1019.5
20260906141017 15 208 1.6 4.8 0.00 0.00 0.00 86 1019.6
20260906140509 15 208 1.6 6.4 0.00 0.00 0.00 86 1019.6
20260906140048 15 208 3.2 6.4 0.00 0.00 0.00 86 1019.5
20260906135519 14 16 0.0 4.8 0.00 0.00 0.00 86 1019.3
20260906135019 14 16 0.0 8.0 0.00 0.00 0.00 86 1019.1
20260906134541 14 13 3.2 8.0 0.00 0.00 0.00 86 1019.1
20260906134018 14 348 1.6 3.2 0.00 0.00 0.00 86 1019.2
20260906133518 14 348 0.0 6.4 0.00 0.00 0.00 86 1019.4
20260906133044 14 348 3.2 6.4 0.00 0.00 0.00 86 1019.3
20260906132516 14 348 3.2 6.4 0.00 0.00 0.00 86 1019.2
20260906132019 14 58 1.6 6.4 0.00 0.00 0.00 86 1018.9
20260906131538 14 46 1.6 6.4 0.00 0.00 0.00 87 1019.1
20260906131019 13 46 1.6 8.0 0.00 0.00 0.00 87 1019.1
20260906130520 13 22 3.2 11.3 0.00 0.00 0.00 88 1019.1
20260906130038 13 42 6.4 12.9 0.00 0.00 0.00 89 1019.0
20260906125517 13 350 3.2 6.4 0.00 0.00 0.00 88 1019.1
20260906125019 13 350 3.2 6.4 0.00 0.00 0.00 88 1019.3
20260906124543 13 350 3.2 12.9 0.00 0.00 0.00 87 1019.3
20260906124016 13 338 4.8 12.9 0.00 0.00 0.00 87 1019.3
20260906123518 13 330 8.0 12.9 0.00 0.00 0.00 86 1019.1
20260906123038 14 338 8.0 12.9 0.00 0.00 0.00 86 1019.3
20260906122519 14 352 6.4 8.0 0.00 0.00 0.00 86 1019.5
20260906122020 13 5 4.8 8.0 0.00 0.00 0.00 87 1019.6
20260906121536 13 360 6.4 8.0 0.00 0.00 0.00 87 1019.6
20260906121017 13 5 4.8 8.0 0.00 0.00 0.00 87 1019.4
20260906120520 13 5 4.8 9.7 0.00 0.00 0.00 87 1019.3
20260906120038 13 352 4.8 9.7 0.00 0.00 0.00 88 1019.4
20260906115519 13 350 6.4 12.9 0.00 0.00 0.00 88 1019.2
20260906115017 13 342 8.0 12.9 0.00 0.00 0.00 89 1019.1
20260906114540 13 9 6.4 14.5 0.00 0.00 0.00 89 1019.1
20260906114018 13 349 9.7 14.5 0.00 0.00 0.00 89 1019.1
20260906113519 13 352 8.0 14.5 0.00 0.00 0.00 89 1018.8
20260906113044 13 12 9.7 17.7 0.00 0.00 0.00 89 1018.9
20260906112513 13 352 11.3 17.7 0.00 0.00 0.00 90 1019.2
20260906112018 13 345 8.0 16.1 0.00 0.00 0.00 90 1019.1
20260906111536 13 352 9.7 16.1 0.00 0.00 0.00 90 1019.3
20260906111019 12 352 8.0 14.5 0.00 0.00 0.00 90 1019.4
20260906110522 12 346 8.0 17.7 0.00 0.00 0.00 90 1019.3
20260906110037 12 340 11.3 19.3 0.00 0.00 0.00 89 1019.2
20260906105518 12 342 12.9 20.9 0.00 0.00 0.00 89 1019.3
20260906105019 13 343 12.9 20.9 0.00 0.00 0.00 89 1019.3
20260906104538 13 360 9.7 22.5 0.00 0.00 0.00 89 1019.6
20260906104017 13 346 14.5 22.5 0.00 0.00 0.00 89 1019.5
20260906103517 13 360 16.1 24.1 0.00 0.00 0.00 88 1019.4
20260906103050 13 350 16.1 25.7 0.00 0.00 0.00 88 1019.5
20260906102522 13 352 17.7 25.7 0.00 0.00 0.00 87 1019.6
20260906102020 13 5 17.7 25.7 0.00 0.00 0.00 87 1019.5
20260906101540 13 10 14.5 25.7 0.00 0.00 0.00 87 1019.5
20260906101021 13 352 19.3 25.7 0.00 0.00 0.00 88 1019.4
20260906100520 13 360 17.7 27.4 0.00 0.00 0.00 88 1019.5
20260906100045 13 5 17.7 27.4 0.00 0.00 0.00 88 1019.5
20260906095517 13 348 17.7 27.4 0.00 0.00 0.00 88 1019.4
20260906095017 13 350 17.7 27.4 0.00 0.00 0.00 89 1019.5
20260906094527 13 344 19.3 27.4 0.00 0.00 0.00 89 1019.5
20260906094018 12 346 20.9 25.7 0.00 0.00 0.00 89 1019.7
20260906093518 12 360 17.7 27.4 0.00 0.00 0.00 89 1019.7
20260906093044 12 342 17.7 27.4 0.00 0.00 0.00 89 1019.9
20260906092523 12 346 17.7 27.4 0.00 0.00 0.00 90 1019.7
20260906092014 12 352 17.7 25.7 0.00 0.00 0.00 89 1019.5
20260906091542 12 342 17.7 24.1 0.00 0.00 0.00 89 1019.7
20260906091019 12 344 16.1 25.7 0.00 0.00 0.00 89 1019.9
20260906090520 12 350 17.7 25.7 0.00 0.00 0.00 89 1019.9
20260906090042 12 351 16.1 24.1 0.00 0.00 0.00 88 1019.9
20260906085519 12 9 12.9 19.3 0.00 0.00 0.00 88 1020.0
20260906085018 12 327 12.9 19.3 0.00 0.00 0.00 87 1020.0
20260906084545 12 344 12.9 19.3 0.00 0.00 0.00 88 1020.0
20260906084020 12 345 12.9 20.9 0.00 0.00 0.00 87 1020.1
20260906083519 12 10 14.5 20.9 0.00 0.00 0.00 87 1019.9
20260906083045 12 346 12.9 20.9 0.00 0.00 0.00 87 1019.9
20260906082521 12 351 16.1 20.9 0.00 0.00 0.00 87 1019.9
20260906082018 12 352 12.9 20.9 0.00 0.00 0.00 87 1019.9
20260906081546 12 345 14.5 22.5 0.00 0.00 0.00 86 1020.2
20260906081019 12 5 16.1 20.9 0.00 0.00 0.00 86 1020.1
20260906080518 12 5 12.9 19.3 0.00 0.00 0.00 86 1020.4
20260906080035 12 15 14.5 24.1 0.00 0.00 0.00 86 1020.3
20260906075519 12 15 12.9 24.1 0.00 0.00 0.00 86 1020.4
20260906075019 12 360 14.5 24.1 0.00 0.00 0.00 85 1020.4
20260906074539 12 352 16.1 29.0 0.00 0.00 0.00 85 1020.7
20260906074016 12 352 16.1 29.0 0.00 0.00 0.00 85 1020.9
20260906073518 12 350 17.7 22.5 0.00 0.00 0.00 85 1020.9
20260906073044 12 347 14.5 25.7 0.00 0.00 0.00 84 1020.9
20260906072519 12 5 14.5 22.5 0.00 0.00 0.00 84 1021.3
20260906072020 12 5 14.5 22.5 0.00 0.00 0.00 84 1021.0
20260906071544 13 352 16.1 22.5 0.00 0.00 0.00 84 1021.2
20260906071018 13 346 16.1 22.5 0.00 0.00 0.00 83 1021.3
20260906070520 13 13 12.9 17.7 0.00 0.00 0.00 83 1021.1
20260906070041 13 352 11.3 19.3 0.00 0.00 0.00 83 1021.2
20260906065521 13 350 11.3 19.3 0.00 0.00 0.00 82 1020.9
20260906065018 13 337 11.3 20.9 0.00 0.00 0.00 81 1021.1
20260906064543 13 352 16.1 20.9 0.00 0.00 0.00 81 1021.1
20260906064020 14 5 14.5 19.3 0.00 0.00 0.00 80 1021.3
20260906063522 14 11 14.5 20.9 0.00 0.00 0.00 80 1021.0
20260906063045 14 15 14.5 22.5 0.00 0.00 0.00 80 1021.2
20260906062518 14 360 12.9 22.5 0.00 0.00 0.00 80 1020.9
20260906062019 14 11 11.3 20.9 0.00 0.00 0.00 80 1021.1
20260906061546 13 5 12.9 22.5 0.00 0.00 0.00 81 1021.2
20260906061019 13 329 16.1 22.5 0.00 0.00 0.00 81 1021.0
20260906060519 13 348 14.5 24.1 0.00 0.00 0.00 80 1020.9
20260906060043 13 338 17.7 24.1 0.00 0.00 0.00 80 1021.0
20260906055522 13 344 12.9 19.3 0.00 0.00 0.00 80 1021.1
20260906055019 13 347 12.9 17.7 0.00 0.00 0.00 80 1021.1
20260906054546 13 349 9.7 16.1 0.00 0.00 0.00 80 1021.2
20260906054022 13 5 6.4 16.1 0.00 0.00 0.00 79 1021.0
20260906053523 14 339 9.7 16.1 0.00 0.00 0.00 79 1021.3
20260906053044 14 350 11.3 19.3 0.00 0.00 0.00 79 1021.4
20260906052518 14 346 12.9 19.3 0.00 0.00 0.00 79 1021.2
20260906052020 13 330 11.3 16.1 0.00 0.00 0.00 79 1021.2
20260906051544 13 350 9.7 16.1 0.00 0.00 0.00 79 1020.9
20260906051022 14 350 9.7 17.7 0.00 0.00 0.00 78 1020.7
20260906050524 14 13 11.3 19.3 0.00 0.00 0.00 78 1020.7
20260906050045 14 352 11.3 20.9 0.00 0.00 0.00 78 1020.7
20260906045523 14 5 12.9 22.5 0.00 0.00 0.00 78 1020.8
20260906045018 14 30 14.5 24.1 0.00 0.00 0.00 78 1020.6
20260906044545 14 29 17.7 24.1 0.00 0.00 0.00 78 1020.4
20260906044024 14 19 19.3 27.4 0.00 0.00 0.00 78 1020.4
20260906043519 14 18 19.3 27.4 0.00 0.00 0.00 77 1020.4
20260906043053 14 5 20.9 27.4 0.00 0.00 0.00 77 1020.6
20260906042517 14 325 14.5 24.1 0.00 0.00 0.00 78 1020.8
20260906042018 14 351 14.5 20.9 0.00 0.00 0.00 78 1020.9
20260906041551 14 330 12.9 17.7 0.00 0.00 0.00 78 1020.8
20260906041022 14 344 11.3 17.7 0.00 0.00 0.00 77 1021.0
20260906040519 14 314 11.3 19.3 0.00 0.00 0.00 76 1021.1
20260906040047 15 351 12.9 22.5 0.00 0.00 0.00 76 1020.9
20260906035519 15 349 16.1 22.5 0.00 0.00 0.00 75 1020.5
20260906035018 15 349 16.1 20.9 0.00 0.00 0.00 75 1020.4
20260906034602 15 352 16.1 25.7 0.00 0.00 0.00 75 1020.2
20260906034019 15 360 17.7 25.7 0.00 0.00 0.00 75 1020.0
20260906033517 15 333 16.1 24.1 0.00 0.00 0.00 74 1019.9
20260906033055 15 352 16.1 22.5 0.00 0.00 0.00 74 1019.9
20260906032520 15 360 16.1 24.1 0.00 0.00 0.00 74 1019.9
20260906032024 15 347 17.7 24.1 0.00 0.00 0.00 73 1019.7
20260906031534 15 352 16.1 24.1 0.00 0.00 0.00 73 1019.7
20260906031022 15 348 16.1 25.7 0.00 0.00 0.00 73 1019.6
20260906030519 16 344 17.7 25.7 0.00 0.00 0.00 72 1019.4
20260906030059 16 338 19.3 25.7 0.00 0.00 0.00 72 1019.4
20260906025520 16 5 19.3 24.1 0.00 0.00 0.00 72 1019.3
20260906025020 16 14 19.3 24.1 0.00 0.00 0.00 72 1019.2
20260906024556 16 350 16.1 27.4 0.00 0.00 0.00 71 1019.4
20260906024020 16 346 19.3 30.6 0.00 0.00 0.00 71 1019.2
20260906023520 16 333 20.9 30.6 0.00 0.00 0.00 70 1019.0
20260906023052 16 5 19.3 27.4 0.00 0.00 0.00 70 1019.1
20260906022519 16 300 20.9 29.0 0.00 0.00 0.00 70 1019.0
20260906022019 16 345 20.9 29.0 0.00 0.00 0.00 69 1019.1
20260906021551 16 360 20.9 30.6 0.00 0.00 0.00 69 1018.8
20260906021017 16 345 20.9 30.6 0.00 0.00 0.00 68 1019.1
20260906020522 16 329 19.3 30.6 0.00 0.00 0.00 68 1019.0
20260906020034 16 18 17.7 32.2 0.00 0.00 0.00 68 1019.1
20260906015519 17 340 22.5 32.2 0.00 0.00 0.00 68 1019.1
20260906015021 17 343 16.1 27.4 0.00 0.00 0.00 68 1019.1
20260906014557 17 352 19.3 27.4 0.00 0.00 0.00 67 1019.0
20260906014021 17 338 17.7 29.0 0.00 0.00 0.00 67 1019.0
20260906013518 17 317 19.3 33.8 0.00 0.00 0.00 67 1019.0
20260906013054 17 330 24.1 33.8 0.00 0.00 0.00 66 1018.9
20260906012522 17 330 19.3 30.6 0.00 0.00 0.00 66 1018.8
20260906012020 17 326 19.3 37.0 0.00 0.00 0.00 65 1018.8
20260906011550 17 330 19.3 37.0 0.00 0.00 0.00 65 1018.6
20260906011019 17 345 22.5 33.8 0.00 0.00 0.00 64 1018.7
20260906010517 18 5 22.5 32.2 0.00 0.00 0.00 63 1018.8
20260906010053 18 352 22.5 32.2 0.00 0.00 0.00 62 1019.0
20260906005517 18 338 19.3 30.6 0.00 0.00 0.00 62 1019.0
20260906005017 18 352 20.9 32.2 0.00 0.00 0.00 61 1018.8
20260906004534 18 19 22.5 37.0 0.00 0.00 0.00 60 1019.0
20260906004025 19 360 19.3 30.6 0.00 0.00 0.00 57 1018.9
20260906003518 19 340 24.1 33.8 0.00 0.00 0.00 56 1018.8
20260906003054 20 346 22.5 33.8 0.00 0.00 0.00 53 1018.9
20260906002518 20 352 22.5 33.8 0.00 0.00 0.00 50 1018.8
20260906002018 21 352 24.1 33.8 0.00 0.00 0.00 47 1019.0
20260906001553 21 15 24.1 30.6 0.00 0.00 0.00 46 1018.9
20260906001017 22 338 20.9 30.6 0.00 0.00 0.00 45 1018.8
20260906000517 22 331 20.9 29.0 0.00 0.00 0.00 45 1019.0
20260906000052 22 350 24.1 29.0 0.00 0.00 0.00 44 1018.9
20260905235519 22 337 20.9 30.6 0.00 0.00 0.00 43 1018.9
20260905235023 22 336 22.5 30.6 0.00 0.00 0.00 43 1019.1
20260905234556 23 320 22.5 29.0 0.00 0.00 0.00 41 1018.9
20260905234020 23 348 16.1 29.0 0.00 0.00 0.00 37 1018.9
20260905233525 23 352 17.7 29.0 0.00 0.00 0.00 35 1018.8
20260905233050 24 335 14.5 24.1 0.00 0.00 0.00 36 1018.8
20260905232520 24 331 16.1 24.1 0.00 0.00 0.00 35 1018.8
20260905232018 24 328 16.1 22.5 0.00 0.00 0.00 36 1018.8
20260905231552 24 352 12.9 22.5 0.00 0.00 0.00 35 1018.9
20260905231020 24 341 12.9 22.5 0.00 0.00 0.00 36 1018.9
20260905230518 24 340 12.9 24.1 0.00 0.00 0.00 36 1018.9
20260905230105 24 339 16.1 24.1 0.00 0.00 0.00 35 1018.9
20260905225519 24 315 9.7 25.7 0.00 0.00 0.00 36 1019.1
20260905225019 24 346 16.1 25.7 0.00 0.00 0.00 36 1019.0
20260905224559 24 346 17.7 25.7 0.00 0.00 0.00 35 1018.8